Terug naar catalogus

OPS 4682 DEB

ActiefPO
NORAD 51506·DEBRIS·🇺🇸 United States

Gelanceerd Apr 3, 1965 vanaf Vandenberg Space Force Base

Loading…

Volgende Passages (komende 24 uur)

TLE

VersSource: Space-Track

Epoch: Sep 12, 2026, 13:42 UTC

1 51506U 65027GS  26255.57110964  .00000411  00000-0  13884-2 0  9992
2 51506  90.2513  15.2244 0040076 211.8301 162.6152 12.97342520708384

Volg OPS 4682 DEB in realtime met AllMySat

Download on the App Store